Change the Weather History Date:

Tuesday, May 28, 2013

  Actual Average Record
Temperature  
Mean Temperature 74 °F 70 °F  
Max Temperature 84 °F 79 °F 98 °F (1941)
Min Temperature 63 °F 62 °F 39 °F (1961)
Degree Days  
Heating Degree Days 0 1  
Month to date heating degree days 67 68  
Since 1 July heating degree days 3266 3368  
Cooling Degree Days 9 6  
Month to date cooling degree days 103 103  
Year to date cooling degree days 169 147  
Growing Degree Days 24 (Base 50)    
Moisture  
Dew Point 59 °F    
Average Humidity 61    
Maximum Humidity 78    
Minimum Humidity 43    
Precipitation  
Precipitation 0.00 in 0.12 in 3.33 in (1906)
Month to date precipitation 4.15 3.04  
Year to date precipitation 17.42 16.65  
Snow  
Snow 0.00 in 0.00 in 0.00 in (2002)
Month to date snowfall 0.0 0.0  
Since 1 July snowfall 1.8 5.8  
Snow Depth 0.00 in    
Sea Level Pressure  
Sea Level Pressure 30.20 in    
Wind  
Wind Speed 14 mph (SSW)    
Max Wind Speed 22 mph    
Max Gust Speed 28 mph    
Visibility 10 miles    
Events      
T = Trace of Precipitation, MM = Missing Value Source: NWS Daily Summary

Daily Weather History Graph

Daily Weather History Graph

Search for Another Location

Airport or City:

Trip Planner

Search our weather history database for the weather conditions in past years. The results will help you decide how hot, cold, wet, or windy it might be!

Date:

Astronomy

May. 28, 2013 Rise Set
Actual Time 5:48 AM EDT 8:16 PM EDT
Civil Twilight 5:18 AM EDT 8:46 PM EDT
Nautical Twilight 4:41 AM EDT 9:23 PM EDT
Astronomical Twilight 4:00 AM EDT 10:04 PM EDT
Moon 11:41 PM EDT (5/28) 9:31 AM EDT (5/28)
Length of Visible Light 15h 27m
Length of Day
14h 27m
Waning Gibbous, 83% of the Moon is Illuminated
May 28
Waning Gibbous
May 31
Last Quarter
Jun 8
New
Jun 16
First Quarter
Jun 23
Full

Hourly Weather History & Observations

Time (EDT) Temp. Heat Index Dew Point Humidity Pressure Visibility Wind Dir Wind Speed Gust Speed Precip Events Conditions
12:51 AM 66.0 °F - 55.0 °F 68% 30.23 in 10.0 mi South 8.1 mph - N/A   Clear
1:51 AM 66.0 °F - 55.9 °F 70% 30.21 in 10.0 mi SSW 11.5 mph - N/A   Clear
2:51 AM 64.0 °F - 55.9 °F 75% 30.21 in 10.0 mi SSW 8.1 mph - N/A   Clear
3:51 AM 64.0 °F - 57.0 °F 78% 30.21 in 10.0 mi SSW 6.9 mph - N/A   Mostly Cloudy
4:51 AM 64.0 °F - 57.0 °F 78% 30.20 in 10.0 mi South 9.2 mph - N/A   Mostly Cloudy
5:51 AM 64.9 °F - 57.9 °F 78% 30.22 in 10.0 mi SSW 11.5 mph - N/A   Overcast
6:51 AM 66.9 °F - 57.9 °F 73% 30.22 in 10.0 mi SSW 13.8 mph - N/A   Overcast
7:51 AM 68.0 °F - 59.0 °F 73% 30.24 in 10.0 mi SSW 13.8 mph - N/A   Mostly Cloudy
8:51 AM 73.0 °F - 60.1 °F 64% 30.24 in 10.0 mi SSW 19.6 mph 24.2 mph N/A   Scattered Clouds
9:51 AM 73.9 °F - 59.0 °F 59% 30.25 in 10.0 mi SW 13.8 mph - N/A   Partly Cloudy
10:51 AM 77.0 °F - 59.0 °F 54% 30.23 in 10.0 mi SW 16.1 mph 26.5 mph N/A   Clear
11:51 AM 80.1 °F 80.6 °F 57.9 °F 47% 30.23 in 10.0 mi SSW 16.1 mph 20.7 mph N/A   Clear
12:51 PM 82.0 °F 82.0 °F 57.9 °F 44% 30.22 in 10.0 mi SSW 15.0 mph 21.9 mph N/A   Clear
1:51 PM 82.9 °F 82.8 °F 59.0 °F 44% 30.19 in 10.0 mi South 17.3 mph 23.0 mph N/A   Clear
2:51 PM 84.0 °F 83.8 °F 59.0 °F 43% 30.18 in 10.0 mi SW 16.1 mph - N/A   Clear
3:51 PM 82.9 °F 83.2 °F 60.1 °F 46% 30.17 in 10.0 mi South 13.8 mph 21.9 mph N/A   Scattered Clouds
4:51 PM 84.0 °F 84.0 °F 60.1 °F 44% 30.15 in 10.0 mi South 15.0 mph - N/A   Clear
5:51 PM 82.9 °F 82.8 °F 59.0 °F 44% 30.14 in 10.0 mi SSW 17.3 mph - N/A   Clear
6:51 PM 81.0 °F 81.3 °F 59.0 °F 47% 30.13 in 10.0 mi SSW 17.3 mph 24.2 mph N/A   Clear
7:51 PM 79.0 °F - 61.0 °F 54% 30.14 in 10.0 mi SSW 18.4 mph 24.2 mph N/A   Clear
8:51 PM 77.0 °F - 61.0 °F 58% 30.15 in 10.0 mi South 12.7 mph 19.6 mph N/A   Clear
9:51 PM 75.0 °F - 61.0 °F 62% 30.17 in 10.0 mi South 12.7 mph - N/A   Clear
10:51 PM 72.0 °F - 61.0 °F 68% 30.18 in 10.0 mi South 15.0 mph - N/A   Clear
11:51 PM 71.1 °F - 62.1 °F 73% 30.18 in 10.0 mi South 13.8 mph - N/A   Clear